Regional Weather Roundup
Issued by NWS

Home | Current Version | Previous Version | Graphics & Text | Print | Product List | Glossary On
Versions: 1 2 3 4 5 6 7 8 9 10 11 12 13 14 15 16 17 18 19 20 21 22 23 24 25 26 27
000
ASUS45 KCYS 210310
RWRWY

WYOMING REGIONAL WEATHER ROUNDUP
NATIONAL WEATHER SERVICE CHEYENNE WY
800 PM MST SAT JAN 20 2018

NOTE:  "FAIR" INDICATES FEW OR NO CLOUDS BELOW 12,000 FEET
WITH NO SIGNIFICANT WEATHER AND/OR OBSTRUCTIONS TO VISIBILITY.

WYZ001-210400-
YELLOWSTONE NATIONAL PARK

CITY           SKY/WX    TMP DP  RH WIND       PRES   REMARKS
LK YELLOWSTONE   N/A      2   0  91 VRB3      29.90R
W YELLOWSTONE  NOT AVBL

$$
WYZ002>013-054>058-071-098>099-210400-
NORTHERN WYOMING

CITY           SKY/WX    TMP DP  RH WIND       PRES   REMARKS
JACKSON        CLOUDY    21  13  71 N9        29.89R WCI  11
CODY           FAIR      26  21  81 CALM      29.94R
GREYBULL       FAIR      26  24  92 CALM      29.94S
WORLAND        CLOUDY    27  26  96 S10       29.93R WCI  17
SHERIDAN       CLOUDY    27  20  75 S3        29.96R
BUFFALO        CLOUDY    27  16  63 NW5       29.93S WCI  22
GILLETTE       CLOUDY    26  24  92 S5        29.94S WCI  20
HULETT         CLOUDY    30  27  86 MISG      29.95R
NEWCASTLE      LGT SNOW  28  28 100 W5        29.94R WCI  23

$$
WYZ014>020-022>026-101>103-210400-
CENTRAL WYOMING

CITY           SKY/WX    TMP DP  RH WIND       PRES   REMARKS
BIG PINEY      CLOUDY    23  14  68 N15       29.79F WCI  10
PINEDALE       CLOUDY    23  16  74 NW13      29.79S WCI  11
DUBOIS         FLURRIES  19  19 100 SE7       29.82S WCI  10
LANDER         LGT SNOW  24  23  96 CALM      29.87S FOG
RIVERTON       LGT SNOW  24  21  88 N5        29.89S FOG     WCI  18
CASPER         LGT SNOW  23  22  96 NE13      29.88S VSB 1   WCI  11
DOUGLAS        LGT SNOW  26  26 100 N3        29.90S VSB 3/4

$$
WYZ021-027>030-104>119-210400-
SOUTHERN WYOMING

CITY           SKY/WX    TMP DP  RH WIND       PRES   REMARKS
EVANSTON       CLOUDY    20  18  92 N16       29.82S FOG     WCI   6
FORT BRIDGER   LGT SNOW  22  22 100 W7        29.84R WCI  13
ROCK SPRINGS   LGT SNOW  22  18  85 N9        29.80R FOG     WCI  12
DIXON          SNOW      28  28  96 W8        29.71F VSB 1/2 WCI  20
RAWLINS        LGT SNOW  22  19  89 N12       29.73F FOG     WCI  10
SARATOGA       LGT SNOW  27  27 100 NW13G21   29.69S WCI  16
LARAMIE        LGT SNOW  25  23  92 E13       29.72F VSB 1   WCI  14
CHEYENNE       SNOW      27  27 100 NE9       29.79F VSB 1/4 WCI  18
TORRINGTON     LGT SNOW  30  30 100 NE12      29.87F VSB 3/4 WCI  20

$$




USA.gov is the U.S. government's official web portal to all federal, state and local government web resources and services.